N7LK Weather Reports


Display with metric or nautical units.
time (UTC)temp
F
wind
direction
speed
MPH
gust
MPH
rain 1hr
in
rain 24hr
in
rain mn
in
humidity
%
barometer
mb
20260506091352 63 230 0.0 0.0 0.00 0.00 0.00 42 1011.7
20260506090342 64 230 0.0 0.0 0.00 0.00 0.00 41 1011.6
20260506085330 64 230 0.0 0.0 0.00 0.00 0.00 40 1011.5
20260506084336 65 242 0.0 0.0 0.00 0.00 0.00 39 1011.4
20260506083404 65 338 0.0 1.0 0.00 0.00 0.00 39 1011.6
20260506082332 66 256 0.0 0.0 0.00 0.00 0.00 37 1011.4
20260506081343 66 256 0.0 4.0 0.00 0.00 0.00 37 1011.4
20260506080331 67 229 0.0 6.0 0.00 0.00 0.00 36 1011.4
20260506073338 67 254 1.0 3.0 0.00 0.00 0.00 35 1011.4
20260506072325 67 273 2.0 7.0 0.00 0.00 0.00 35 1011.4
20260506071334 68 270 2.0 6.0 0.00 0.00 0.00 34 1011.3
20260506070340 68 266 4.0 10.0 0.00 0.00 0.00 34 1011.2
20260506062334 69 283 2.0 7.0 0.00 0.00 0.00 33 1011.0
20260506061325 69 263 4.0 7.0 0.00 0.00 0.00 32 1011.0
20260506060333 69 273 1.0 4.0 0.00 0.00 0.00 32 1010.9
20260506051336 70 283 1.0 10.0 0.00 0.00 0.00 31 1010.7
20260506050327 70 279 2.0 9.0 0.00 0.00 0.00 31 1010.5
20260506044403 70 317 2.0 7.0 0.00 0.00 0.00 30 1010.4
20260506043330 70 265 4.0 8.0 0.00 0.00 0.00 30 1010.3
20260506042338 71 196 3.0 8.0 0.00 0.00 0.00 30 1010.3
20260506041330 71 270 1.0 9.0 0.00 0.00 0.00 29 1010.1
20260506040338 71 233 5.0 10.0 0.00 0.00 0.00 29 1010.0
20260506035327 71 226 0.0 4.0 0.00 0.00 0.00 28 1009.9
20260506034340 72 228 1.0 6.0 0.00 0.00 0.00 28 1009.8
20260506033329 72 269 1.0 11.0 0.00 0.00 0.00 27 1009.6
20260506032355 72 256 7.0 13.0 0.00 0.00 0.00 27 1009.5
20260506031343 72 257 4.0 10.0 0.00 0.00 0.00 27 1009.3
20260506030335 72 270 4.0 9.0 0.00 0.00 0.00 27 1009.2
20260506025344 73 280 3.0 12.0 0.00 0.00 0.00 26 1009.0
20260506024331 73 285 1.0 10.0 0.00 0.00 0.00 27 1009.0
20260506023338 73 268 2.0 11.0 0.00 0.00 0.00 26 1008.7
20260506022330 73 234 4.0 12.0 0.00 0.00 0.00 26 1008.7
20260506021337 74 232 4.0 13.0 0.00 0.00 0.00 25 1008.5
20260506020345 74 240 4.0 10.0 0.00 0.00 0.00 24 1008.4
20260506015333 75 295 2.0 10.0 0.00 0.00 0.00 24 1008.3
20260506014344 75 252 7.0 12.0 0.00 0.00 0.00 24 1008.1
20260506013331 76 248 0.0 9.0 0.00 0.00 0.00 25 1008.1
20260506012339 76 258 0.0 11.0 0.00 0.00 0.00 25 1008.0
20260506011347 76 182 3.0 11.0 0.00 0.00 0.00 25 1007.9
20260506010358 76 223 2.0 11.0 0.00 0.00 0.00 25 1007.9
20260506005405 76 300 3.0 15.0 0.00 0.00 0.00 25 1007.9
20260506004353 76 274 5.0 15.0 0.00 0.00 0.00 25 1007.8
20260506003340 76 263 7.0 14.0 0.00 0.00 0.00 25 1007.7
20260506002331 77 168 6.0 15.0 0.00 0.00 0.00 24 1007.6
20260506001338 77 181 4.0 12.0 0.00 0.00 0.00 24 1007.5
20260506000346 77 263 7.0 16.0 0.00 0.00 0.00 24 1007.5
20260505235333 77 240 2.0 14.0 0.00 0.00 0.00 25 1007.5
20260505234341 77 333 2.0 11.0 0.00 0.00 0.00 25 1007.4
20260505233332 77 302 3.0 16.0 0.00 0.00 0.00 26 1007.4
20260505232340 78 298 5.0 11.0 0.00 0.00 0.00 25 1007.5
20260505231328 76 222 4.0 10.0 0.00 0.00 0.00 27 1007.5
20260505230335 76 263 8.0 16.0 0.00 0.00 0.00 25 1007.6
20260505225407 76 257 2.0 13.0 0.00 0.00 0.00 27 1007.6
20260505224334 76 321 4.0 12.0 0.00 0.00 0.00 27 1007.8
20260505223403 78 315 4.0 16.0 0.00 0.00 0.00 26 1007.9
20260505222329 77 262 6.0 13.0 0.00 0.00 0.00 26 1008.0
20260505221401 78 270 6.0 15.0 0.00 0.00 0.00 26 1008.1
20260505220407 77 207 4.0 17.0 0.00 0.00 0.00 26 1008.3
20260505215334 79 256 3.0 16.0 0.00 0.00 0.00 25 1008.2
20260505214342 78 234 6.0 12.0 0.00 0.00 0.00 26 1008.2
20260505213332 78 259 6.0 13.0 0.00 0.00 0.00 26 1008.3
20260505212340 78 280 4.0 8.0 0.00 0.00 0.00 25 1008.4
20260505211329 77 279 8.0 15.0 0.00 0.00 0.00 26 1008.5
20260505210336 78 260 5.0 16.0 0.00 0.00 0.00 27 1008.7
20260505205328 77 221 4.0 13.0 0.00 0.00 0.00 26 1008.7
20260505204334 78 248 6.0 17.0 0.00 0.00 0.00 27 1008.8
20260505203342 77 203 4.0 12.0 0.00 0.00 0.00 28 1008.8
20260505202329 76 215 10.0 19.0 0.00 0.00 0.00 29 1008.9
20260505201336 77 155 5.0 12.0 0.00 0.00 0.00 29 1008.9
20260505200346 77 221 5.0 14.0 0.00 0.00 0.00 31 1009.0
20260505195334 76 246 4.0 12.0 0.00 0.00 0.00 31 1009.0
20260505194342 76 231 4.0 14.0 0.00 0.00 0.00 31 1009.2
20260505193333 76 239 3.0 12.0 0.00 0.00 0.00 32 1009.2
20260505192340 76 242 3.0 13.0 0.00 0.00 0.00 32 1009.2
20260505191346 75 219 2.0 9.0 0.00 0.00 0.00 34 1009.4
20260505190334 75 234 4.0 10.0 0.00 0.00 0.00 34 1009.5
20260505185342 75 275 3.0 8.0 0.00 0.00 0.00 37 1009.5
20260505184333 75 246 5.0 11.0 0.00 0.00 0.00 38 1009.8
20260505183401 75 235 4.0 8.0 0.00 0.00 0.00 37 1009.6
20260505182327 74 240 3.0 12.0 0.00 0.00 0.00 40 1009.8
20260505181335 74 304 4.0 10.0 0.00 0.00 0.00 38 1009.9
20260505180406 73 257 5.0 10.0 0.00 0.00 0.00 40 1009.8
20260505175333 73 280 6.0 10.0 0.00 0.00 0.00 41 1009.9
20260505174341 72 273 3.0 11.0 0.00 0.00 0.00 42 1009.9
20260505173329 72 34 0.0 10.0 0.00 0.00 0.00 42 1009.9
20260505172340 72 238 5.0 10.0 0.00 0.00 0.00 44 1009.9
20260505171330 72 265 4.0 9.0 0.00 0.00 0.00 43 1009.9
20260505170356 71 228 1.0 9.0 0.00 0.00 0.00 43 1010.0
20260505165344 71 269 2.0 6.0 0.00 0.00 0.00 45 1009.9
20260505164336 70 238 3.0 9.0 0.00 0.00 0.00 46 1010.0
20260505163344 68 287 1.0 7.0 0.00 0.00 0.00 47 1010.0
20260505162331 68 279 3.0 7.0 0.00 0.00 0.00 51 1010.0
20260505161359 68 150 3.0 6.0 0.00 0.00 0.00 53 1010.1
20260505160331 68 223 3.0 10.0 0.00 0.00 0.00 55 1010.2
20260505153332 68 281 4.0 10.0 0.00 0.00 0.00 53 1010.1
20260505152344 69 249 6.0 13.0 0.00 0.00 0.00 53 1010.0
20260505151331 69 267 3.0 9.0 0.00 0.00 0.00 54 1009.9
20260505150338 68 273 5.0 11.0 0.00 0.00 0.00 54 1009.9
20260505140350 66 185 0.0 1.0 0.00 0.00 0.00 55 1009.7
20260505124333 66 220 0.0 2.0 0.00 0.00 0.00 54 1009.1
20260505123340 66 182 1.0 4.0 0.00 0.00 0.00 54 1008.9
20260505122327 66 207 1.0 4.0 0.00 0.00 0.00 53 1008.9
20260505121333 66 201 2.0 5.0 0.00 0.00 0.00 53 1008.8
20260505120403 66 226 2.0 6.0 0.00 0.00 0.00 53 1008.7
20260505115327 66 200 2.0 5.0 0.00 0.00 0.00 52 1008.7
20260505114334 67 265 1.0 4.0 0.00 0.00 0.00 52 1008.7
20260505113340 67 247 0.0 4.0 0.00 0.00 0.00 52 1008.6
20260505112332 67 235 0.0 5.0 0.00 0.00 0.00 51 1008.7
20260505111338 67 219 0.0 5.0 0.00 0.00 0.00 50 1008.4
20260505110346 68 262 2.0 4.0 0.00 0.00 0.00 49 1008.3
20260505101342 69 255 1.0 7.0 0.00 0.00 0.00 47 1009.0
20260505100333 69 247 1.0 10.0 0.00 0.00 0.00 46 1009.2
20260505095340 70 261 3.0 7.0 0.00 0.00 0.00 44 1009.3
20260505094327 70 265 0.0 7.0 0.00 0.00 0.00 43 1009.3
20260505093334 70 281 0.0 2.0 0.00 0.00 0.00 43 1009.4
20260505092344 70 245 2.0 6.0 0.00 0.00 0.00 42 1009.5